Flag for Sudan Weather past 2 weeks in Khartoum, Sudan

Now
104 °F

Sunny.


Feels Like: 99 °F
Forecast: 75 / 103 °F
Wind: 7 mph from North

Location: Khartoum Airport

Current Time: Mar 2, 2015 at 4:20:17 PM

Latest Report: Mar 2, 2015 at 4:00 PM


Visibility: 10 mi

Pressure: 29.71 "Hg

Humidity: 12%

Dew point: 41 °F

Location of KhartoumLocation

Historic Weather in Khartoum — Graph

°F

Khartoum temperature yesterday

Maximum temperature yesterday: 100 °F (at 6:00 PM)
Minimum temperature yesterday: 77 °F (at 6:00 AM)
Average temperature yesterday: 88 °F

Past Weeks' High & Low Weather Summary

 TemperatureHumidityPressure
High106 °F (Feb 27, 3:00 PM)34% (Feb 19, 7:00 AM)30.01 "Hg (Feb 19, 7:00 AM)
Low61 °F (Feb 21, 8:00 AM)1% (Feb 25, 2:00 PM)29.68 "Hg (Feb 22, 9:30 AM)
Average84 °F15%29.84 "Hg
* Reported Feb 15 3:00 PM — Mar 2 3:00 PM, Khartoum, Weather by CustomWeather, © 2015

Note: Actual official high and low records may vary slightly from our data, if they occured in-between our weather recording intervals... More about our weather records

Advertising

Khartoum weather history for previous 24 hours

 ConditionsComfort  
Time TempWeatherWind HumidityBarometerVisibility
3:00 PM
Mon, Mar 2
102 °FExtremely hot.8 mph14%29.74 "HgN/A
2:30 PMN/AHaze.6 mphN/A29.74 "Hg5 mi
2:00 PM99 °FHaze.9 mph17%29.77 "Hg5 mi
1:30 PMN/AHaze.8 mphN/A29.77 "Hg4 mi
1:00 PM97 °FHaze.9 mph22%29.77 "Hg4 mi
12:30 PMN/AHaze.8 mphN/A29.80 "Hg4 mi
12:00 PM91 °FHot.7 mph26%29.80 "Hg4 mi
11:00 AM86 °FPleasantly warm.8 mph29%29.83 "Hg1 mi
10:30 AMN/AHaze.10 mphN/A29.83 "Hg1 mi
10:00 AMN/ASandstorm.13 mphN/A29.83 "Hg1 mi
9:30 AMN/ASandstorm.14 mphN/A29.83 "Hg2 mi
9:00 AM81 °FHaze.6 mph8%29.83 "Hg2 mi
8:30 AMN/AHaze.6 mphN/A29.83 "Hg2 mi
8:00 AM81 °FHaze.6 mph9%29.80 "Hg2 mi
7:00 AM81 °FPleasantly warm.6 mph10%29.77 "Hg4 mi
6:30 AMN/A6 mphN/A29.77 "Hg5 mi
6:00 AM81 °FClear.9 mph21%29.74 "Hg10 mi
5:00 AM82 °FClear.9 mph19%29.74 "Hg10 mi
4:30 AMN/AClear.10 mphN/A29.74 "Hg10 mi
4:00 AM84 °FClear.12 mph16%29.74 "Hg10 mi
3:30 AMN/AClear.9 mphN/A29.74 "Hg10 mi
3:00 AM84 °FClear.6 mph16%29.74 "Hg10 mi
2:30 AMN/AClear.9 mphN/A29.74 "Hg10 mi
2:00 AM86 °FClear.6 mph13%29.74 "Hg10 mi
1:30 AMN/AClear.6 mphN/A29.74 "Hg10 mi
1:00 AM86 °FClear.7 mph18%29.74 "Hg10 mi
12:30 AMN/AClear.7 mphN/A29.77 "Hg10 mi
11:30 PM
Sun, Mar 1
N/AClear.6 mphN/A29.77 "Hg10 mi
9:30 PMN/AClear.6 mphN/A29.77 "Hg10 mi
9:00 PM93 °FClear.6 mph16%29.74 "Hg10 mi
8:30 PMN/AClear.6 mphN/A29.74 "Hg10 mi
8:00 PM93 °FClear.6 mph16%29.71 "Hg10 mi
7:00 PM97 °FHaze.6 mph16%29.71 "Hg5 mi
6:30 PMN/ASunny.8 mphN/A29.71 "Hg10 mi
6:00 PM100 °FSunny.12 mph11%29.68 "Hg10 mi
5:30 PMN/ASunny.10 mphN/A29.68 "Hg10 mi
5:00 PM99 °FSunny.9 mph13%29.68 "Hg10 mi
4:30 PMN/AHaze.10 mphN/A29.71 "Hg5 mi
4:00 PM99 °FHaze.12 mph13%29.71 "Hg5 mi
Weather by CustomWeather, © 2015

See weather overviewHow to use our weather pages